[[{"header":{"parameterUnit":"m.s-1","parameterCategory":1,"la1":30.2991,"la2":30.254,"lo1":-89.0895,"lo2":-89.0444,"dx":0.0017,"dy":0.0017,"nx":28,"ny":28,"refTime":"2022-11-17T15:00:00:Z","depth":0,"parameterNumber":2,"parameterNumberName":"U-component_of_WINDS"},"data":[0,0,0,0,0,0,0,0,0,0,0,0,0,0,0,0,0,0,0,0,0,0,0,0,0,0,0,0,0,0,0,0,0,0,0,0,0,0,0,0,0,0,0,0,0,0,0,0,0,0,0,0,0,0,0,0,0,0,-4.186,-4.186,0,-4.1881,-4.1881,-4.1881,-4.17,-4.1695,-4.169,-4.1685,-4.1711,-4.1716,-4.1721,0,0,0,0,0,0,0,0,0,0,0,0,0,-4.1666,-4.1671,-4.186,-4.186,-4.1861,-4.1881,-4.1881,-4.1882,-4.1701,-4.1695,-4.1689,-4.1683,-4.1709,-4.1715,-4.1722,0,0,0,0,0,0,0,0,0,0,0,0,0,-4.1725,-4.1672,-4.186,-4.1773,-4.1765,-4.1881,-4.1881,-4.1882,-4.1702,-4.1695,-4.1687,-4.168,-4.1707,-4.1715,-4.1723,-4.1924,0,0,-4.1747,-4.1751,0,0,0,0,0,0,0,0,-4.1722,-4.1733,-4.1786,-4.1779,-4.1771,-4.178,-4.1822,-4.1896,-4.1704,-4.1727,-4.1685,-4.1677,-4.174,-4.1745,-4.1766,-4.1925,-4.1926,-4.1748,-4.1753,-4.1757,-4.1759,0,0,0,0,0,0,0,-4.1718,-4.1731,-4.1868,-4.1787,-4.1778,-4.1734,-4.1734,-4.1835,-4.1776,-4.1724,-4.1711,-4.1716,-4.1735,-4.1759,-4.1765,-4.1927,-4.1748,-4.1755,-4.176,-4.1763,-4.225,-4.2258,0,0,0,0,0,0,-4.1726,-4.1729,-4.1868,-4.1869,-4.1727,-4.1743,-4.1743,-4.1785,-4.1774,-4.1765,-4.1722,-4.1707,-4.1748,-4.1756,-4.1765,-4.1999,-4.1756,-4.1764,-4.1769,-4.2242,-4.2252,-4.2261,0,0,0,0,0,0,-4.1722,-4.174,-4.1867,-4.1795,-4.1808,-4.1755,-4.1803,-4.1789,-4.1813,-4.1773,-4.1761,-4.1757,-4.1743,-4.1754,-4.1885,-4.1998,-4.1768,-4.1775,-4.2233,-4.2245,-4.2257,-4.247,0,0,0,0,0,0,-4.1717,-4.174,-4.1815,-4.1798,-4.1813,-4.1987,-4.181,-4.1795,-4.1827,-4.1807,-4.1802,-4.1794,-4.1738,-4.1874,-4.1893,-4.2005,-4.1781,-4.2223,-4.2238,-4.2253,-4.2453,-4.2488,-4.2518,0,0,0,0,0,-4.1711,-4.1876,-4.182,-4.1838,-4.1906,-4.1994,-4.2002,-4.1932,-4.1836,-4.1912,-4.1886,-4.1795,-4.1982,-4.1889,-4.1909,-4.2025,-4.2215,-4.2234,-4.2252,-4.2438,-4.2481,-4.2517,0,0,0,0,0,0,-4.1909,-4.1872,-4.181,-4.1974,-4.1988,-4.1963,-4.2056,-4.198,-4.2023,-4.2003,-4.1916,-4.1916,-4.2062,-4.2056,-4.1953,-4.2218,-4.2082,-4.2105,-4.2217,-4.2257,-4.2289,-4.2288,-4.1788,0,0,0,0,0,-4.1972,-4.2045,-4.2009,-4.2157,-4.2167,-4.2111,-4.2147,-4.2091,-4.2103,-4.2109,-4.2092,-4.2108,-4.217,-4.2213,-4.2268,-4.245,-4.2446,-4.2539,-4.2572,-4.2599,-4.2621,-4.2715,-4.2756,-4.2321,-4.2321,-4.232,0,0,-4.2103,-4.2091,-4.2143,-4.2197,-4.2201,-4.2279,-4.2117,-4.2208,-4.2265,-4.2123,-4.2245,-4.2234,-4.2245,-4.2403,-4.2471,-4.2403,-4.2739,-4.2622,-4.2644,-4.2651,-4.2738,-4.2779,-4.2816,-4.2333,-4.2331,-4.2329,0,0,-4.238,-4.2379,-4.2502,-4.2509,-4.2517,-4.2478,-4.2508,-4.2494,-4.248,-4.2601,-4.2495,-4.2563,-4.2672,-4.2684,-4.2705,-4.2985,-4.2903,-4.3006,-4.3177,-4.327,-4.3305,-4.3335,-4.3434,-4.3471,-4.3027,-4.3027,-4.3028,0,-4.2542,-4.2655,-4.2575,-4.2672,-4.2698,-4.257,-4.2694,-4.2705,-4.2732,-4.2754,-4.2675,-4.2808,-4.2807,-4.2965,-4.3034,-4.3055,-4.3086,-4.3006,-4.3306,-4.3335,-4.3362,-4.3456,-4.3494,-4.304,-4.3038,-4.3037,-4.3036,0,-4.2853,-4.2933,-4.3031,-4.3058,-4.3095,-4.3206,-4.3142,-4.319,-4.3131,-4.3101,-4.3225,-4.3219,-4.327,-4.3303,-4.3248,-4.3454,-4.341,-4.3321,-4.3182,-4.3417,-4.3504,-4.354,-4.3058,-4.3053,-4.305,-4.3046,0,0,-4.3258,-4.3237,-4.3275,-4.3285,-4.3283,-4.3344,-4.3448,-4.3496,-4.3538,-4.3561,-4.3646,-4.374,-4.3656,-4.368,-4.3624,-4.3706,-4.3928,-4.3606,-4.3605,-4.3666,-4.4154,-4.4221,-4.4264,-4.3872,-4.3879,-4.3884,-4.4152,0,-4.3529,-4.3704,-4.3634,-4.3815,-4.3888,-4.3767,-4.3857,-4.3867,-4.3841,-4.3899,-4.387,-4.3938,-4.3823,-4.3836,-4.3911,-4.3885,-4.4025,-4.3865,-4.3951,-4.3955,-4.3953,-4.431,-4.4382,-4.4636,-4.4186,-4.4192,-4.4196,0,-4.3868,-4.3902,-4.4091,-4.4075,-4.4102,-4.4185,-4.4222,-4.428,-4.4287,-4.4262,-4.4288,-4.4214,-4.4314,-4.4176,-4.4314,-4.4206,-4.4237,-4.423,-4.4238,-4.4244,-4.409,-4.4326,-4.4715,-4.4753,-4.4249,-4.4244,-4.4241,0,-4.4145,-4.4238,-4.4362,-4.4374,-4.4359,-4.4419,-4.4416,-4.4416,-4.4449,-4.4482,-4.4502,-4.4548,-4.4573,-4.461,-4.455,-4.4454,-4.4696,-4.4553,-4.4679,-4.4681,-4.4736,-4.4733,-4.5136,-4.4756,-4.4756,-4.4755,-4.4754,0,-4.4454,-4.4575,-4.4485,-4.4562,-4.4693,-4.4611,-4.4743,-4.4726,-4.4727,-4.4798,-4.4697,-4.4766,-4.4682,-4.4743,-4.4697,-4.4818,-4.483,-4.4813,-4.4799,-4.4822,-4.4825,-4.4842,-4.4823,-4.4765,-4.4763,-4.4761,-4.4759,0,-4.4786,-4.4731,-4.4858,-4.4832,-4.4829,-4.4926,-4.4904,-4.4974,-4.494,-4.5032,-4.5048,-4.4996,-4.5063,-4.5005,-4.5071,-4.5039,-4.52,-4.5161,-4.5197,-4.5186,-4.5315,-4.5304,-4.5743,-4.5797,-4.5383,-4.5387,-4.5391,0,-4.4987,-4.5076,-4.5059,-4.5099,-4.5101,-4.5167,-4.5199,-4.5122,-4.516,-4.5174,-4.5243,-4.5301,-4.5343,-4.5455,-4.5423,-4.5472,-4.5434,-4.5584,-4.5441,-4.546,-4.5436,-4.5431,-4.5439,-4.5614,-4.5619,-4.5623,-4.5626,0,-4.535,-4.5318,-4.5368,-4.5409,-4.5449,-4.5478,-4.5499,-4.5537,-4.5458,-4.5506,-4.5572,-4.5604,-4.5669,-4.5728,-4.5766,-4.5763,-4.5683,-4.5671,-4.5703,-4.5728,-4.5745,-4.5737,-4.5277,-4.5662,-4.5658,-4.5656,-4.5654,-4.5652,-4.5622,-4.5695,-4.5694,-4.5753,-4.576,-4.5781,-4.5845,-4.5818,-4.5871,-4.5917,-4.5868,-4.5949,-4.5952,-4.5995,-4.6001,-4.6063,-4.6001,-4.6047,-4.6058,-4.6071,-4.6089,-4.5735,-4.607,-4.6069,-4.6068,-4.6067,-4.6066,0,-4.598,-4.5972,-4.6027,-4.6058,-4.6104,-4.6021,-4.604,-4.6084,-4.6155,-4.6165,-4.6208,-4.6284,-4.634,-4.6311,-4.636,-4.6415,-4.6379,-4.643,-4.6425,-4.6426,-4.6143,-4.6111,-4.6458,-4.6458,-4.6458,-4.6458,-4.6458,-4.6458,-4.6171,-4.629,-4.6257,-4.6378,-4.637,-4.6447,-4.6464,-4.6483,-4.649,-4.6579,-4.6624,-4.6604,-4.6599,-4.6645,-4.6693,-4.6683,-4.6706,-4.6771,-4.6748,-4.6485,-4.6446,-4.6409,-4.6378,-4.6776,-4.6777,-4.7025,-4.7027,-4.7029]},{"header":{"parameterUnit":"m.s-1","parameterCategory":1,"la1":30.2991,"la2":30.254,"lo1":-89.0895,"lo2":-89.0444,"dx":0.0017,"dy":0.0017,"nx":28,"ny":28,"refTime":"2022-11-17T15:00:00:Z","depth":0,"parameterNumber":3,"parameterNumberName":"V-component_of_WINDS"},"data":[0,0,0,0,0,0,0,0,0,0,0,0,0,0,0,0,0,0,0,0,0,0,0,0,0,0,0,0,0,0,0,0,0,0,0,0,0,0,0,0,0,0,0,0,0,0,0,0,0,0,0,0,0,0,0,0,0,0,-4.4694,-4.4694,0,-4.4756,-4.4757,-4.4758,-4.4709,-4.4707,-4.4705,-4.4703,-4.4764,-4.4767,-4.477,0,0,0,0,0,0,0,0,0,0,0,0,0,-4.4526,-4.4529,-4.4694,-4.4694,-4.4695,-4.4756,-4.4757,-4.4758,-4.471,-4.4707,-4.4704,-4.4702,-4.4762,-4.4767,-4.4771,0,0,0,0,0,0,0,0,0,0,0,0,0,-4.4595,-4.4531,-4.4693,-4.4678,-4.4678,-4.4756,-4.4757,-4.4758,-4.471,-4.4707,-4.4704,-4.4701,-4.4761,-4.4766,-4.4771,-4.4867,0,0,-4.4788,-4.479,0,0,0,0,0,0,0,0,-4.4591,-4.4601,-4.468,-4.468,-4.4679,-4.4722,-4.472,-4.4795,-4.4711,-4.4698,-4.4703,-4.4699,-4.4752,-4.4758,-4.4776,-4.487,-4.4872,-4.4788,-4.4791,-4.4794,-4.4795,0,0,0,0,0,0,0,-4.4586,-4.4598,-4.4718,-4.4681,-4.468,-4.4667,-4.4673,-4.4734,-4.4741,-4.4699,-4.4695,-4.4704,-4.4751,-4.4771,-4.4777,-4.4873,-4.4788,-4.4793,-4.4796,-4.4798,-4.5045,-4.5048,0,0,0,0,0,0,-4.4584,-4.4594,-4.4716,-4.472,-4.4627,-4.4672,-4.4679,-4.4711,-4.4741,-4.4742,-4.4706,-4.4701,-4.4764,-4.4771,-4.4779,-4.4891,-4.4794,-4.4799,-4.4802,-4.5042,-4.5046,-4.5049,0,0,0,0,0,0,-4.458,-4.4595,-4.4714,-4.4656,-4.4671,-4.4679,-4.4715,-4.4714,-4.4734,-4.4746,-4.4747,-4.4726,-4.4762,-4.4772,-4.4845,-4.4892,-4.4801,-4.4806,-4.5038,-4.5043,-4.5047,-4.5116,0,0,0,0,0,0,-4.4576,-4.4594,-4.4632,-4.4658,-4.4674,-4.478,-4.4718,-4.4718,-4.4744,-4.4738,-4.4765,-4.4766,-4.476,-4.4837,-4.485,-4.4898,-4.481,-4.5033,-4.504,-4.5046,-4.511,-4.5123,-4.5134,0,0,0,0,0,-4.457,-4.4649,-4.4634,-4.4649,-4.4721,-4.4783,-4.4792,-4.4784,-4.4748,-4.4785,-4.4792,-4.4766,-4.4886,-4.4845,-4.486,-4.491,-4.503,-4.5038,-4.5045,-4.5104,-4.512,-4.5134,0,0,0,0,0,0,-4.4627,-4.4652,-4.4636,-4.4726,-4.4753,-4.4775,-4.4821,-4.4802,-4.4839,-4.4831,-4.4819,-4.4825,-4.4902,-4.4913,-4.4868,-4.5002,-4.4952,-4.4963,-4.4992,-4.5007,-4.5019,-4.5014,-4.4814,0,0,0,0,0,-4.465,-4.47,-4.4718,-4.4795,-4.481,-4.4814,-4.484,-4.4832,-4.4859,-4.4869,-4.4882,-4.4908,-4.4951,-4.498,-4.5021,-4.5112,-4.5115,-4.5153,-4.5165,-4.5175,-4.5184,-4.523,-4.5246,-4.5074,-4.5074,-4.5074,0,0,-4.4698,-4.4718,-4.475,-4.4807,-4.4827,-4.4877,-4.4823,-4.4879,-4.4915,-4.4877,-4.4947,-4.4957,-4.4985,-4.5067,-4.5104,-4.5079,-4.5233,-4.5185,-4.5193,-4.5196,-4.524,-4.5256,-4.527,-4.5079,-4.5078,-4.5077,0,0,-4.4811,-4.4832,-4.4898,-4.4919,-4.495,-4.4951,-4.4967,-4.4992,-4.4998,-4.5068,-4.504,-4.5082,-4.5158,-4.5178,-4.5198,-4.5317,-4.5293,-4.5331,-4.5394,-4.5439,-4.5453,-4.5465,-4.5505,-4.552,-4.534,-4.534,-4.534,0,-4.4866,-4.4942,-4.4933,-4.499,-4.5015,-4.4985,-4.5049,-4.507,-4.5112,-4.5129,-4.5101,-4.5194,-4.5211,-4.5296,-4.5325,-4.5343,-4.5358,-4.5327,-4.5452,-4.5464,-4.5475,-4.5513,-4.5528,-4.5344,-4.5344,-4.5343,-4.5343,0,-4.5007,-4.506,-4.5108,-4.5151,-4.5181,-4.5242,-4.5241,-4.5272,-4.5261,-4.5265,-4.5335,-4.5354,-4.5397,-4.5417,-4.5406,-4.55,-4.5483,-4.5454,-4.5403,-4.5496,-4.5531,-4.5546,-4.535,-4.5349,-4.5347,-4.5346,0,0,-4.5157,-4.5194,-4.5212,-4.5229,-4.5261,-4.5301,-4.5359,-4.5402,-4.5428,-4.5458,-4.5505,-4.5569,-4.5541,-4.5564,-4.5556,-4.5596,-4.5685,-4.5561,-4.5561,-4.5582,-4.5787,-4.5807,-4.5824,-4.567,-4.5673,-4.5675,-4.5784,0,-4.527,-4.5373,-4.5366,-4.5462,-4.5509,-4.548,-4.553,-4.5553,-4.5558,-4.5597,-4.5602,-4.5647,-4.5609,-4.5622,-4.5661,-4.5666,-4.5726,-4.5659,-4.5711,-4.5713,-4.5703,-4.5843,-4.5865,-4.5967,-4.5798,-4.58,-4.5802,0,-4.5415,-4.545,-4.5551,-4.5574,-4.5593,-4.5639,-4.5676,-4.5715,-4.574,-4.5741,-4.5766,-4.575,-4.5806,-4.5755,-4.5831,-4.5786,-4.5807,-4.5813,-4.5816,-4.5819,-4.5762,-4.5848,-4.5999,-4.6014,-4.5824,-4.5822,-4.582,0,-4.5511,-4.5584,-4.5653,-4.567,-4.5699,-4.5731,-4.5744,-4.5767,-4.5792,-4.5825,-4.584,-4.5879,-4.59,-4.5929,-4.5922,-4.5886,-4.5999,-4.5948,-4.5999,-4.5999,-4.6023,-4.6021,-4.6178,-4.604,-4.604,-4.604,-4.6039,0,-4.5637,-4.5699,-4.5697,-4.5739,-4.5807,-4.5798,-4.5865,-4.5874,-4.5894,-4.5936,-4.5914,-4.5953,-4.5943,-4.5982,-4.5978,-4.604,-4.605,-4.605,-4.6048,-4.6051,-4.6051,-4.6063,-4.6055,-4.6044,-4.6043,-4.6042,-4.6041,0,-4.5756,-4.5757,-4.583,-4.5852,-4.5858,-4.5907,-4.5924,-4.5963,-4.5966,-4.6019,-4.6031,-4.6035,-4.6079,-4.6076,-4.6126,-4.6123,-4.6199,-4.619,-4.6191,-4.6188,-4.6238,-4.6233,-4.6407,-4.6428,-4.6279,-4.628,-4.6281,0,-4.5834,-4.5882,-4.5908,-4.5935,-4.595,-4.5994,-4.602,-4.6012,-4.604,-4.6071,-4.6106,-4.6148,-4.6181,-4.6253,-4.6259,-4.6296,-4.6286,-4.6344,-4.6291,-4.6292,-4.6284,-4.628,-4.6284,-4.6354,-4.6356,-4.6357,-4.6358,0,-4.5973,-4.5971,-4.601,-4.6049,-4.6081,-4.6111,-4.6138,-4.6161,-4.6156,-4.6188,-4.6233,-4.6259,-4.6309,-4.6351,-4.6386,-4.6397,-4.6376,-4.6375,-4.6388,-4.6391,-4.6389,-4.6389,-4.6217,-4.6371,-4.637,-4.6369,-4.6368,-4.6367,-4.6073,-4.6113,-4.6137,-4.618,-4.62,-4.6226,-4.6263,-4.627,-4.6308,-4.6349,-4.6342,-4.6392,-4.6414,-4.646,-4.6475,-4.6512,-4.6491,-4.6511,-4.6516,-4.652,-4.6525,-4.6385,-4.6519,-4.6519,-4.6518,-4.6518,-4.6518,0,-4.6209,-4.6223,-4.6263,-4.6302,-4.6335,-4.6314,-4.6343,-4.6372,-4.6417,-4.6439,-4.6473,-4.6523,-4.6563,-4.6572,-4.661,-4.6638,-4.6629,-4.6648,-4.6644,-4.6647,-4.6543,-4.6527,-4.6654,-4.6654,-4.6654,-4.6654,-4.6654,-4.6654,-4.6283,-4.6348,-4.6349,-4.6423,-4.6436,-4.6486,-4.6504,-4.6526,-4.6544,-4.6602,-4.6635,-4.6642,-4.6658,-4.6696,-4.6731,-4.6733,-4.6746,-4.6769,-4.6766,-4.6668,-4.6655,-4.6641,-4.6626,-4.6772,-4.6772,-4.6867,-4.6867,-4.6868]}]]